This is the latest recevied weather packets stored in our database for station/object N6GPM. If no packets are shown the sender has not sent any weather packets the latest 10 day(s).
| Time | Temp. | Humidity | Pressure | Rain* | Wind** | Luminosity | Snow |
|---|---|---|---|---|---|---|---|
| 1787472350 | 26.11° C | 32% | 1018.3 hPa | 0 mm | - | 0 W/m² | - |
| 1787472046 | 26.11° C | 33% | 1018.2 hPa | 0 mm | - | 0 W/m² | - |
| 1787471741 | 26.11° C | 32% | 1018.2 hPa | 0 mm | - | 0 W/m² | - |
| 1787471437 | 26.67° C | 31% | 1018.2 hPa | 0 mm | - | 0 W/m² | - |
| 1787471133 | 26.67° C | 30% | 1018.6 hPa | 0 mm | - | 0 W/m² | - |
| 1787470830 | 26.67° C | 30% | 1018.3 hPa | 0 mm | - | 0 W/m² | - |
| 1787470525 | 26.67° C | 30% | 1018.3 hPa | 0 mm | - | 0 W/m² | - |
| 1787470222 | 27.22° C | 29% | 1018.3 hPa | 0 mm | - | 0 W/m² | - |
| 1787469917 | 27.22° C | 28% | 1018.2 hPa | 0 mm | - | 0 W/m² | - |
| 1787469614 | 27.22° C | 28% | 1018.3 hPa | 0 mm | - | 0 W/m² | - |
| 1787469308 | 27.22° C | 28% | 1018.3 hPa | 0 mm | - | 0 W/m² | - |
| 1787469004 | 27.22° C | 27% | 1018.4 hPa | 0 mm | - | 0 W/m² | - |
| 1787468700 | 27.22° C | 26% | 1018.1 hPa | 0 mm | - | 0 W/m² | - |
| 1787468395 | 27.22° C | 26% | 1018.5 hPa | 0 mm | - | 0 W/m² | - |
| 1787468091 | 27.22° C | 27% | 1018.4 hPa | 0 mm | - | 0 W/m² | - |
| 1787467787 | 27.22° C | 28% | 1018.3 hPa | 0 mm | - | 0 W/m² | - |
| 1787467482 | 27.22° C | 30% | 1018.4 hPa | 0 mm | - | 0 W/m² | - |
| 1787467177 | 27.22° C | 31% | 1018.4 hPa | 0 mm | - | 0 W/m² | - |
| 1787466873 | 26.67° C | 33% | 1018.6 hPa | 0 mm | - | 0 W/m² | - |
| 1787466568 | 26.67° C | 38% | 1018.2 hPa | 0 mm | - | 0 W/m² | - |
| 1787466263 | 26.11° C | 42% | 1018.3 hPa | 0 mm | - | 0 W/m² | - |
| 1787465960 | 26.11° C | 44% | 1018.3 hPa | 0 mm | - | 0 W/m² | - |
| 1787465654 | 26.11° C | 44% | 1018.3 hPa | 0 mm | - | 0 W/m² | - |
| 1787465350 | 26.11° C | 44% | 1018.4 hPa | 0 mm | - | 0 W/m² | - |
| 1787465045 | 26.67° C | 44% | 1018.5 hPa | 0 mm | - | 0 W/m² | - |
* Rain latest hour (hover to see other rain measurements)
** Current wind speed in m/s (hover to see current wind gust speed)